Zurück zum Katalog

BREEZE-M DEB

AktivHEO
NORAD 38577·DEBRIS·🇷🇺 Russia

Gestartet Mar 14, 2008 von Baikonur Cosmodrome

Loading…

Nächste Überflüge (nächste 24 Stunden)

TLE

AktuellSource: Space-Track

Epoche: Sep 8, 2026, 06:22 UTC

1 38577U 08011Y   26251.26562091 -.00001253  00000-0 -99082-2 0  9990
2 38577  49.2773 324.4704 6569091 255.8149 106.2341  2.99694802171654

Verfolge BREEZE-M DEB in Echtzeit mit AllMySat

Download on the App Store